Portada
METAR-TAF:

METAR-TAF

Aeroports :

Chichén Itzá, Mèxic

latitud: 20-38-30N, longitud: 088-26-58W, altitud: 31 m

Observació

L'informe es va fer fa 3 hores i 11 minuts, a les 23:51 UTC
Vent 11 kt del Est/Sud-Est
Temperatura 34°C
Humitat 39%
Pressió 1014 hPa
Visibilitat: 11.3 km
Escasses núvols a una alçada de 2000 ft

METAR: MMCT 202351Z 11011KT 7SM FEW020 34/18 A2994 RMK 8/100 HZY CI

Hora: 22:02 (03:02 UTC)


TAF: manca

Observacions i pronòstics meteorològics de més de 4000 aeroports (METAR i TAF).

Les estacions disponibles són els punts grocs i vermells al mapa.

Posi el ratolí al punt desitjat per veure el nom de l'estació.

Feu clic per veure les observacions i els pronòstics meteorològics.

Per canviar el mapa: feu clic els botons verds amb una creu de color negre per apropar; al botó verd amb un guió per allunyar la imatge; o en les fletxes verdes per a mapes adjacents.


METAR-TAF: